This demonstration page uses our WeatherBlox Daily Observations layout. Learn more.

Left ArrowRight Arrow

Hourly Observations for February 7, 2019

Temp ( °F °C ) Dew Point ( °F °C ) Humidity (%) Winds ( mph kmh ) Pressure ( in mb ) Visibility ( mi km ) Precip ( " mm )
12:12 am 00:12 Cloudy with Light Snow 11 -11.7 6 -14.4 81 81 NNW 14 22 30.12 1020 2 2 0.00 0.03
12:52 am 00:52 Cloudy with Light Snow 11 -11.7 5 -15 77 77 NNW 17 28 30.08 1019 2 2 0.01 0.25
12:58 am 00:58 Cloudy with Light Snow 11 -11.7 5 -15 77 77 NNW 16 26 30.15 1021 2 3 0.00 0.03
1:22 am 01:22 Cloudy with Light Snow 10 -12.2 4 -15.6 76 76 NNW 18 30 30.15 1021 3 5 0.00 0.03
1:39 am 01:39 Cloudy with Light Snow 10 -12.2 4 -15.6 76 76 NW 14 22 30.18 1022 3 5 0.00 0.03
1:52 am 01:52 Windy with Snow Likely 9 -12.8 3 -16.1 77 77 NW 21 33 30.12 1020 4 6 0.00 0.03
2:52 am 02:52 Windy with Snow Likely 8 -13.3 1 -17.2 73 73 NNW 22 35 30.07 1018 7 11 0.00 0.03
3:52 am 03:52 Windy with Snow Likely 8 -13.3 1 -17.2 73 73 NNW 20 31 30.10 1019 6 10 0.00 0.03
4:30 am 04:30 Windy with Snow Likely 7 -13.9 1 -17.2 76 76 NNW 20 31 30.15 1021 3 4 0.00 0.03
4:37 am 04:37 Windy with Snow Likely 7 -13.9 0 -17.8 73 73 NW 22 35 30.17 1022 2 3 0.00 0.03
4:52 am 04:52 Windy with Snow Likely 7 -13.9 0 -17.8 73 73 NNW 20 31 30.13 1020 2 3 0.00 0.03
5:07 am 05:07 Windy with Snow Likely 6 -14.4 -1 -18.3 73 73 NNW 20 31 30.15 1021 2 3 0.00 0.03
5:22 am 05:22 Cloudy with Light Snow 7 -13.9 0 -17.8 73 73 NW 15 24 30.18 1022 4 6 0.00 0.03
5:40 am 05:40 Windy with Snow Likely 6 -14.4 0 -17.8 76 76 NW 20 31 30.16 1021 3 4 0.00 0.03
5:52 am 05:52 Windy with Snow Likely 6 -14.4 -1 -18.3 73 73 NW 20 31 30.12 1020 3 4 0.00 0.03
6:16 am 06:16 Windy with Snow Likely 6 -14.4 -1 -18.3 73 73 NW 23 37 30.16 1021 2 2 0.00 0.03
6:49 am 06:49 Cloudy with Light Snow 5 -15 -2 -19 72 72 NW 17 28 30.18 1022 2 3 0.00 0.03
6:52 am 06:52 Windy with Snow Likely 5 -15 -1 -18.3 76 76 NW 21 33 30.11 1020 2 3 0.00 0.03
7:11 am 07:11 Windy with Snow Likely 5 -15 -3 -19.4 69 69 NW 23 37 30.18 1022 3 4 0.00 0.03
7:31 am 07:31 Windy with Snow Likely 5 -15 -3 -19.4 69 69 NW 23 37 30.20 1023 3 5 0.00 0.03
7:52 am 07:52 Windy with Snow Likely 5 -15 -3 -19.4 69 69 NW 26 43 30.15 1021 3 4 0.00 0.03
8:02 am 08:02 Cloudy with Snow 4 -15.6 -3 -19.4 73 73 NW 21 33 30.21 1023 1 1 0.00 0.03
8:11 am 08:11 Cloudy with Snow 4 -15.6 -2 -18.9 76 76 NW 18 30 30.22 1023 1 1 0.00 0.03
8:26 am 08:26 Windy with Snow Likely 5 -15 -3 -19.4 69 69 NW 20 31 30.21 1023 1 2 0.00 0.03
8:31 am 08:31 Windy with Snow Likely 5 -15 -3 -19.4 69 69 NW 20 31 30.21 1023 5 8 0.00 0.03
8:52 am 08:52 Windy with Snow Likely 5 -15 -4 -20 66 66 NW 21 33 30.16 1021 6 10 0.01 0.25
9:04 am 09:04 Windy with Snow Likely 5 -15 -3 -19.4 69 69 NW 22 35 30.21 1023 2 3 0.00 0.03
9:12 am 09:12 Windy with Snow Likely 4 -15.6 -3 -19.4 73 73 NW 24 39 30.21 1023 1 2 0.00 0.03
9:19 am 09:19 Windy with Snow Likely 5 -15 -3 -19.4 69 69 NW 23 37 30.21 1023 3 5 0.00 0.03
9:52 am 09:52 Windy with Snow Likely 5 -15 -3 -19.4 69 69 NW 20 31 30.17 1022 3 5 0.00 0.03
10:05 am 10:05 Windy with Snow Likely 5 -15 -3 -19.4 69 69 NW 24 39 30.23 1024 3 4 0.00 0.03
10:29 am 10:29 Windy with Snow Likely 6 -14.4 -3 -19.4 66 66 NW 20 31 30.24 1024 4 6 0.00 0.03
10:52 am 10:52 Windy with Snow Likely 6 -14.4 -3 -19.4 66 66 NW 25 41 30.19 1022 3 5 0.00 0.03
11:52 am 11:52 Mostly Cloudy with Blowing Snow 7 -13.9 -3 -19.4 63 63 NW 24 39 30.21 1023 6 10 0.00 0.03
12:52 pm 12:52 Mostly Cloudy with Blowing Snow 8 -13.3 -2 -18.9 63 63 NW 23 37 30.21 1023 6 10 0.00 0.00
1:52 pm 13:52 Cloudy 9 -12.8 -3 -19.4 58 58 WNW 24 39 30.22 1023 7 11 0.00 0.00
2:52 pm 14:52 Mostly Cloudy 9 -12.8 -3 -19.4 58 58 NW 28 44 30.24 1024 10 16 0.00 0.00
3:42 pm 15:42 Mostly Cloudy 10 -12.2 -3 -19.4 55 55 WNW 23 37 30.31 1026 10 16 0.00 0.00
3:52 pm 15:52 Mostly Cloudy 10 -12.2 -2 -18.9 58 58 NW 25 41 30.27 1025 10 16 0.00 0.00
4:52 pm 16:52 Mostly Cloudy 9 -12.8 -4 -20 55 55 WNW 24 39 30.30 1026 10 16 0.00 0.00
5:52 pm 17:52 Partly Cloudy 7 -13.9 -4 -20 60 60 NW 21 33 30.34 1028 10 16 0.00 0.00
6:52 pm 18:52 Mostly Clear 6 -14.4 -5 -20.6 60 60 WNW 21 33 30.38 1029 10 16 0.00 0.00
7:52 pm 19:52 Clear 5 -15 -6 -21.1 60 60 WNW 18 30 30.43 1030 10 16 0.00 0.00
8:52 pm 20:52 Clear 5 -15 -7 -21.7 57 57 WNW 17 28 30.46 1031 10 16 0.00 0.00
9:52 pm 21:52 Clear 4 -15.6 -7 -21.7 60 60 NW 16 26 30.48 1032 10 16 0.00 0.00
10:52 pm 22:52 Clear 3 -16.1 -8 -22.2 60 60 NW 15 24 30.50 1033 10 16 0.00 0.00
11:52 pm 23:52 Clear 3 -16.1 -8 -22.2 60 60 WNW 16 26 30.52 1033 10 16 0.00 0.00

Powered by AerisWeather